Theta_e
335 326 323 322 319 314 313 311 312 314 313 312 312 311 311 310 310 310 310 310 310 311 312 312 312 313 314 314 315 316 316 313 313 321 338 343 343 343 342 341 340 341 344
335 331 321 321 317 313 312 312 312 314 314 313 313 312 312 312 312 311 311 311 311 311 312 313 316 316 319 321 323 321 321 324 322 315 316 335 342 343 342 341 341 339 344
334 327 322 319 315 314 313 312 313 315 314 314 314 314 314 314 314 313 312 311 310 312 315 318 322 326 326 327 329 327 325 324 322 326 328 319 332 339 343 341 341 342 341
336 326 320 317 315 314 314 314 314 315 315 314 315 315 315 315 316 316 316 315 314 315 319 322 324 329 333 335 335 334 330 327 328 332 328 318 316 328 328 342 339 341 339
337 326 320 317 315 315 316 315 314 315 315 315 316 316 316 317 318 318 319 320 321 321 329 331 333 333 334 336 338 336 333 331 329 333 329 320 318 324 326 336 339 339 343
332 325 320 318 316 316 316 316 315 316 316 316 316 317 317 318 319 320 320 322 324 333 335 335 337 337 337 337 336 337 337 334 333 331 329 325 331 334 329 330 338 339 339
330 326 322 320 316 316 316 316 315 316 316 316 317 317 318 318 320 320 321 322 326 335 336 337 338 337 339 338 337 337 333 335 336 334 331 330 333 336 337 332 338 337 338
332 327 323 320 317 316 316 316 316 315 317 317 317 317 318 319 320 321 321 323 327 332 336 339 339 338 337 336 335 334 335 336 335 332 332 331 333 334 340 337 335 335 337
334 329 326 321 319 316 316 316 316 316 316 317 317 318 318 320 320 321 321 322 327 333 336 335 336 336 335 331 331 334 334 337 337 332 327 330 333 335 335 332 330 330 329
336 331 328 325 321 316 316 316 316 316 316 317 318 318 319 320 321 322 322 322 326 331 331 330 329 331 333 331 328 329 329 336 337 336 331 326 330 335 336 332 330 329 328
340 335 331 326 323 319 316 316 316 316 317 317 318 319 320 321 322 322 322 322 328 332 332 331 330 329 329 328 326 329 334 333 334 335 332 330 326 329 337 334 331 330 329
341 340 335 331 327 323 320 318 317 316 317 317 318 320 322 322 323 323 323 323 330 334 334 333 331 330 327 325 325 331 333 332 332 331 330 328 329 327 330 334 332 331 331
334 340 339 337 333 328 324 322 321 319 318 319 319 320 323 324 325 326 324 324 331 334 335 334 332 330 329 327 328 326 325 327 329 329 328 326 327 328 332 335 333 332 332
328 332 337 339 338 334 329 326 324 324 320 320 321 322 324 326 326 327 326 324 333 334 334 335 333 331 330 330 329 330 330 330 331 331 331 330 330 325 332 336 334 332 330
324 327 334 337 339 339 334 329 328 326 322 322 326 324 324 326 326 327 327 327 333 333 334 334 334 332 331 332 331 330 331 331 331 331 331 331 332 328 328 331 335 331 331
327 328 327 332 336 341 339 333 329 330 327 327 330 330 327 326 325 327 326 332 334 335 335 334 333 333 332 332 331 330 331 331 329 330 329 331 331 329 329 330 333 330 330
326 326 326 326 330 339 341 339 335 332 331 331 331 332 330 329 326 327 327 334 335 333 334 335 333 332 333 332 331 330 331 329 329 329 328 330 329 329 330 330 329 330 330
325 325 327 327 329 334 340 340 339 337 335 333 333 333 332 330 326 328 329 335 336 334 337 335 333 333 333 332 331 330 330 329 329 329 328 329 329 329 330 329 328 328 328
325 325 325 326 328 331 340 341 339 339 338 337 336 335 332 329 329 329 332 336 335 336 336 335 334 334 334 333 332 331 331 330 329 329 328 328 328 329 330 329 327 327 327
324 325 325 327 329 336 341 341 339 339 339 339 338 336 333 333 331 334 335 336 336 335 335 335 335 335 333 331 330 330 330 329 328 328 328 328 328 329 329 329 327 328 328
325 326 326 328 332 339 342 341 339 340 340 340 340 339 338 338 339 336 337 336 336 335 334 335 335 333 332 330 329 329 329 329 328 328 328 328 328 329 329 329 327 328 329
326 327 326 328 330 336 340 340 340 340 339 340 340 340 340 341 339 338 337 335 335 335 335 335 333 331 330 329 326 324 323 325 327 328 328 328 329 328 328 328 327 328 329
325 326 326 328 329 335 339 341 341 340 338 339 340 341 341 340 339 338 334 335 336 335 334 332 330 329 329 327 327 324 322 322 323 325 327 328 328 328 328 328 327 328 327
321 323 325 327 332 339 341 341 340 338 336 335 338 339 337 336 338 335 336 335 334 333 331 329 328 329 328 327 326 326 324 324 324 324 325 326 328 328 327 327 328 326 327
320 325 330 334 339 342 343 341 340 336 336 336 336 336 335 334 336 336 335 333 331 329 328 328 328 328 328 328 326 324 325 325 325 323 325 323 327 328 327 327 326 327 328
341 343 343 344 344 344 343 341 340 337 335 334 334 335 335 335 334 333 331 330 326 327 328 328 328 328 328 327 327 325 324 323 323 325 323 320 323 326 327 327 328 328 327
Wind_Speed
30 28 32 29 25 24 22 21 21 20 18 18 17 17 16 15 13 11 10 9 8 7 5 4 3 2 1 1 1 2 2 3 5 4 3 3 3 4 5 6 8 11 13
31 32 35 31 27 25 23 22 22 21 19 18 17 16 16 14 13 11 10 9 8 7 6 4 3 3 2 1 1 1 2 2 3 4 5 4 3 5 5 6 8 11 13
25 36 35 31 28 26 24 23 22 20 20 19 18 16 15 14 12 11 10 9 8 8 7 6 5 4 3 2 2 2 2 3 4 3 3 6 5 4 6 7 9 11 13
27 38 38 33 30 28 25 23 23 21 20 19 18 17 15 14 12 11 10 10 9 8 7 7 6 5 4 3 3 4 4 4 5 3 4 4 8 6 5 9 10 11 13
28 38 38 35 33 30 28 26 25 23 22 20 18 17 16 15 13 12 10 9 9 9 9 8 7 6 6 5 6 6 6 6 6 5 6 4 5 6 7 11 11 11 13
30 37 39 37 35 33 31 30 28 26 24 22 20 18 16 15 14 13 11 9 9 10 10 9 9 8 8 7 7 8 10 9 7 6 6 4 2 4 9 13 14 12 13
32 37 39 38 36 34 33 32 29 28 27 25 23 20 18 17 16 14 12 10 10 11 11 11 10 10 11 11 11 11 11 11 10 9 7 6 4 2 4 12 13 12 13
30 37 39 40 38 36 34 33 32 30 29 27 25 23 21 19 17 15 12 9 9 10 10 10 11 12 13 14 14 14 13 12 12 12 9 8 6 5 11 11 11 10 12
28 35 39 42 41 38 37 36 34 33 31 29 27 25 23 21 18 15 12 9 8 9 10 10 12 12 13 13 14 14 15 15 14 13 13 11 8 6 12 12 12 12 12
27 35 39 41 42 42 40 39 37 35 33 31 29 27 25 22 19 16 13 10 9 9 9 8 10 11 12 13 14 15 15 15 15 16 15 13 11 8 11 12 13 13 13
28 31 37 41 44 45 44 43 39 37 35 33 31 29 27 25 23 18 15 11 10 9 9 9 9 11 12 12 13 14 13 15 16 18 17 15 13 12 12 14 15 14 13
31 36 39 41 45 47 46 43 42 41 39 37 36 33 32 29 26 21 17 13 12 11 11 11 11 11 11 12 12 12 14 14 16 18 18 18 17 15 15 15 15 15 15
39 37 42 44 44 47 47 46 45 45 42 41 39 37 35 32 28 24 20 16 15 14 14 14 14 14 13 12 11 10 12 12 13 16 17 16 17 18 15 14 17 16 16
29 34 42 46 46 48 45 47 46 47 47 47 45 41 39 36 31 27 23 19 17 15 16 16 16 15 15 14 13 11 11 13 13 14 15 15 15 16 15 14 17 16 16
16 28 39 43 48 50 49 43 44 48 50 50 46 46 43 40 35 30 24 21 19 18 17 17 18 18 16 16 16 16 15 15 14 13 14 15 12 14 15 18 19 16 16
29 30 31 38 44 47 49 48 50 45 49 46 43 45 45 41 35 31 26 23 21 19 16 17 19 19 18 17 18 19 17 15 15 16 16 15 12 13 14 16 18 17 15
38 39 36 33 38 43 48 49 48 47 44 44 44 44 43 40 35 31 27 27 23 18 18 18 18 18 17 17 19 20 19 17 18 18 16 16 13 16 16 15 15 15 15
44 42 40 32 33 42 46 46 43 42 43 42 41 41 40 36 37 33 31 29 21 19 18 18 20 19 17 17 19 20 21 20 18 16 16 17 16 18 19 17 15 15 15
45 45 41 34 33 37 44 42 40 38 39 38 36 37 37 35 36 33 31 23 20 18 18 19 19 17 18 21 24 25 24 23 22 19 17 17 17 19 21 18 15 16 15
43 38 32 31 32 34 35 33 32 32 33 33 33 32 31 31 30 30 27 23 21 18 18 17 16 17 19 21 19 20 20 23 20 20 18 17 18 20 18 18 15 16 15
34 28 27 26 30 31 32 31 29 33 32 32 30 31 29 28 30 30 27 23 20 19 18 15 15 16 18 16 9 10 15 16 17 18 16 18 17 18 18 17 14 13 15
31 27 25 28 29 34 32 27 17 25 25 31 27 27 27 30 28 30 27 23 19 17 14 14 14 13 11 9 4 1 2 4 16 16 14 15 18 17 17 15 15 13 13
26 28 23 26 31 32 30 22 15 22 20 22 25 27 28 25 26 27 22 21 18 15 14 14 12 12 10 5 10 3 1 3 1 3 11 13 16 16 15 12 14 14 14
30 32 26 25 26 29 29 26 27 19 18 18 29 29 24 22 24 22 22 19 16 14 13 11 9 9 10 8 8 14 2 2 1 1 6 14 16 14 13 12 12 12 12
16 18 22 22 20 21 24 27 27 23 17 28 29 27 25 24 23 22 20 16 14 10 9 9 8 9 10 11 11 5 13 6 1 1 1 1 8 11 11 11 12 12 14
7 11 15 21 21 25 25 28 30 31 30 29 26 26 26 25 21 18 15 12 9 9 8 7 7 9 9 11 12 12 8 4 5 3 1 1 1 3 9 10 11 12 12
Wind_Direction
195 184 181 179 167 163 161 153 147 142 140 138 138 139 139 141 146 151 154 154 156 164 168 164 158 144 150 221 288 314 293 253 235 231 193 148 153 159 189 176 172 167 159
186 184 182 179 168 167 166 159 153 149 146 144 145 144 142 143 146 152 155 158 161 169 175 167 166 153 160 163 291 317 324 323 299 250 227 209 182 180 180 194 177 181 172
180 179 184 179 172 173 170 165 160 156 153 153 153 148 146 145 148 154 155 162 166 170 173 173 177 178 177 197 232 258 273 279 280 296 303 235 207 188 193 198 200 197 183
182 183 185 180 178 177 175 172 168 164 161 160 159 155 153 153 157 160 160 163 167 172 178 184 189 197 199 211 240 260 260 267 274 289 291 261 213 206 204 205 208 201 196
184 186 185 183 182 182 181 180 176 173 171 169 168 164 162 163 168 168 168 171 176 180 187 195 204 213 215 224 242 256 266 272 272 278 281 266 216 228 241 208 212 206 206
187 188 189 187 187 187 187 186 183 180 179 178 176 174 172 174 176 176 176 182 191 196 200 206 216 225 232 237 248 253 252 259 268 275 277 229 257 265 234 217 205 208 206
190 194 194 191 192 194 192 191 190 188 187 185 183 183 181 181 184 184 184 190 200 209 214 219 225 233 241 245 248 253 253 251 257 268 273 245 244 276 182 192 199 207 206
196 197 197 196 199 198 198 198 196 195 195 193 190 188 187 189 189 191 190 196 205 215 223 233 241 247 247 250 253 252 254 249 251 260 261 250 250 240 195 203 200 203 210
205 201 200 201 202 204 204 203 203 201 201 201 200 196 194 195 193 194 195 199 212 224 233 237 247 251 253 255 254 251 251 248 250 253 256 254 250 240 202 214 214 213 216
212 207 207 207 207 206 207 208 207 207 207 207 208 205 201 200 201 200 199 204 213 228 239 246 257 259 256 255 255 253 247 243 244 252 255 256 247 226 219 230 224 225 219
220 218 213 211 212 212 211 210 210 211 212 212 214 213 210 206 205 206 208 213 216 228 236 245 261 271 266 260 255 251 247 244 244 247 255 259 255 242 236 234 233 235 237
223 224 221 218 215 215 214 214 212 212 214 215 216 215 215 212 212 209 212 219 222 227 235 244 255 264 260 261 259 245 241 240 246 252 255 255 259 254 243 234 233 235 243
224 227 225 225 222 219 216 215 215 214 215 218 219 217 219 216 215 215 213 219 224 227 235 241 245 251 257 260 266 249 240 237 249 258 260 260 261 255 249 245 237 235 240
224 231 231 227 225 224 218 216 215 215 216 219 220 218 219 218 216 217 217 218 223 224 234 242 246 250 255 258 259 254 246 254 265 271 262 261 264 246 237 240 236 224 232
240 230 230 229 228 227 219 215 216 218 218 220 222 220 219 220 218 217 218 221 220 226 230 239 245 245 251 255 256 254 254 263 266 266 267 261 261 240 236 242 225 225 230
280 263 250 235 231 223 222 217 219 218 220 220 221 221 220 219 221 220 219 222 224 229 233 238 242 242 250 259 256 253 253 257 266 263 269 267 255 239 233 220 217 229 228
284 281 267 251 232 227 224 219 219 221 219 219 221 224 223 219 221 220 220 222 225 230 233 237 233 238 247 254 252 250 248 257 262 257 261 255 261 228 217 217 225 229 235
281 275 267 250 236 229 225 219 217 218 220 220 220 221 223 222 221 219 219 221 221 228 234 230 228 234 251 255 253 243 244 255 263 259 254 249 252 224 211 218 227 230 239
277 275 272 253 237 231 223 215 216 218 219 218 216 218 223 222 220 216 217 217 221 224 223 224 228 238 253 260 260 255 251 255 256 257 255 245 247 228 213 213 222 225 233
278 276 271 255 234 222 214 209 212 217 217 217 215 221 218 215 212 212 211 213 219 223 222 224 237 252 261 271 268 261 255 252 255 252 252 242 242 233 215 218 217 229 234
276 264 250 234 218 207 201 196 200 205 203 209 213 215 211 204 207 202 208 212 219 223 230 238 250 263 270 269 258 258 253 250 252 250 249 232 233 231 225 215 233 239 227
259 245 231 222 213 211 203 198 197 192 194 202 204 206 204 202 201 200 204 211 223 227 230 240 251 254 264 261 208 177 319 293 245 237 231 224 224 227 227 229 230 231 234
246 241 232 219 215 212 205 186 185 174 172 180 191 192 192 199 200 201 206 215 225 224 234 244 248 244 244 243 208 179 102 239 304 223 219 242 224 221 222 228 230 236 239
253 253 243 229 214 205 200 181 169 161 160 164 174 168 175 193 196 201 206 212 215 223 232 249 243 241 238 236 220 228 211 160 177 10 228 234 230 210 220 228 218 232 238
271 237 217 202 192 189 178 179 164 145 152 157 168 174 180 189 191 194 200 201 204 223 233 220 231 240 241 239 220 202 223 233 157 114 285 342 198 211 212 224 227 230 228
132 146 155 152 151 160 167 171 165 152 150 149 155 156 160 167 176 182 186 192 197 200 211 230 229 234 241 244 235 224 205 175 196 170 232 276 115 154 192 210 210 207 215